Location: *
(60.1759°S, 155.0663°W)
Time: 02:15:56
(UTC+00:00)

Meteor 1-31 Rocket - Pass Details

Date: 17 September 2019
Orbit: 521 x 548 km, 97.6° (Epoch: 21 October)

Event Time Altitude Azimuth Distance (km) Brightness Sun altitude
Exits shadow 13:47:48 24° 9° (N) 1,142 4.2 -19.3°
Maximum altitude 13:50:04 77° 286° (WNW) 557 2.6 -19.1°
Drops below altitude 10° 13:53:58 10° 198° (SSW) 1,808 5.6 -18.7°
Sets 13:56:06 0° 196° (SSW) 2,705 6.5 -18.4°
